Погода в Подвязье

Россия / Рязанская область     54°35′23″N   39°32′29″E
темп.,
°C
ветер,
м/с
пор.,
м/с
влажн.,
%
обл.,
%
осадки,
мм/ч
давл.,
гПа
погр.,
м
7 мая, пт
пт700:00+8з4989100 0.9 1010597
03:00+7ююз2490100 2.4 1010131
06:00+8зюз3691100 0.4 1011356
09:00+9з466699 0.4 1012937
12:00+12з68505 0.0 10131843
15:00+14з57435 0.0 10142297
18:00+13ююз3555100 0.0 1014236
21:00+9ю4763100 0.0 101596
8 мая, сб
сб800:00+7ююв4106944 0.0 1015163
03:00+8ююв61566100 0.0 1013334
06:00+8ююв81775100 0.0 1012594
09:00+9ююв81582100 1.3 1010785
12:00+10ююв101876100 2.3 10061063
15:00+11ю91792100 6.3 10051077
18:00+11ююз81294100 1.6 1004726
21:00+9юз61290100 1.6 1006586
9 мая, вс
вс900:00+7зюз61289100 0.1 1008601
03:00+5з71087100 0.1 1011793
06:00+5зсз61079100 0.0 1014929
09:00+6зсз577698 0.0 1016939
12:00+7зсз6771100 0.1 10181023
15:00+7сз5867100 0.1 10201256
18:00+9ссз586251 0.0 10211106
21:00+5сз35780 0.0 102469
10 мая, пн
пн1000:00+4ссз34840 0.0 102648
03:00+3сз34873 0.0 102851
06:00+4ссз24834 0.0 1030106
09:00+10с34625 0.0 1031486
12:00+13с23475 0.0 10311386
15:00+14с34465 0.0 10301516
18:00+14ссз23591 0.0 1030336
21:00+9ссз22640 0.0 103113
11 мая, вт
вт1100:00+7св23710 0.0 103122
03:00+6в22754 0.0 103212
06:00+7вюв227315 0.0 103347
09:00+13в34605 0.0 1033486
12:00+16в45505 0.0 10321035
15:00+17в45495 0.0 10301080
18:00+16в366485 0.0 1029306
21:00+11в357572 0.0 103069